Location: Gleizolles
(44.4833°N, 6.7667°E)
Time: 00:21:19
(UTC+00:00)

Tiros 1 despin weight - Pass Details

Date: 27 June 2024
Orbit: 576 x 620 km, 48.2° (Epoch: 24 July)

Event Time Altitude Azimuth Distance (km) Brightness Sun altitude
Rises 08:45:40 0° 204° (SSW) 2,855 ? 49.4°
Reaches altitude 10° 08:48:21 10° 189° (S) 1,962 ? 49.9°
Maximum altitude 08:51:49 22° 138° (SE) 1,353 ? 50.4°
Drops below altitude 10° 08:55:20 10° 88° (E) 1,984 ? 51.0°
Sets 08:58:03 0° 73° (ENE) 2,896 ? 51.5°
